CW8248 Weather Reports


time (UTC)temp
F
wind
direction
speed
knots
gust
knots
rain 1hr
in
rain 24hr
in
rain mn
in
humidity
%
barometer
mb
20260508141025 54 244 5.2 15.6 0.00 0.00 0.00 57 1017.7
20260508140525 54 243 7.0 15.6 0.00 0.00 0.00 56 1017.7
20260508140030 54 260 6.1 15.6 0.00 0.00 0.00 56 1017.6
20260508135524 54 241 4.3 15.6 0.00 0.00 0.00 54 1017.5
20260508135021 54 253 2.6 14.8 0.00 0.00 0.00 54 1017.5
20260508134527 54 257 6.1 16.5 0.00 0.00 0.00 54 1017.4
20260508134019 54 268 5.2 16.5 0.00 0.00 0.00 55 1017.4
20260508133518 54 273 5.2 12.2 0.00 0.00 0.00 57 1017.4
20260508133017 54 351 4.3 15.6 0.00 0.00 0.00 56 1017.3
20260508132520 54 254 3.5 16.5 0.00 0.00 0.00 58 1017.2
20260508132014 54 191 2.6 16.5 0.00 0.00 0.00 59 1017.2
20260508131513 54 317 3.5 16.5 0.00 0.00 0.00 60 1017.2
20260508131012 53 301 5.2 12.2 0.00 0.00 0.00 60 1017.1
20260508130511 53 191 4.3 12.2 0.00 0.00 0.00 60 1017.0
20260508130011 53 191 4.3 10.4 0.00 0.00 0.00 60 1016.9
20260508125511 53 191 2.6 11.3 0.00 0.00 0.00 59 1016.9
20260508125011 53 281 1.7 14.8 0.00 0.00 0.00 60 1016.9
20260508124511 53 191 2.6 14.8 0.00 0.00 0.00 60 1016.9
20260508124010 53 271 3.5 9.6 0.00 0.00 0.00 60 1016.9
20260508123513 53 236 3.5 13.0 0.00 0.00 0.00 60 1016.8
20260508123010 53 264 6.1 13.0 0.00 0.00 0.00 60 1016.9
20260508122513 53 246 4.3 13.0 0.00 0.00 0.00 61 1016.9
20260508122008 53 251 4.3 12.2 0.00 0.00 0.00 61 1016.8
20260508121509 53 241 5.2 13.9 0.00 0.00 0.00 60 1016.8
20260508121008 53 265 5.2 13.9 0.00 0.00 0.00 60 1016.8
20260508120507 53 191 6.1 11.3 0.00 0.00 0.00 60 1016.8
20260508120009 52 246 5.2 12.2 0.00 0.00 0.00 60 1016.8
20260508115508 52 263 6.1 10.4 0.00 0.00 0.00 60 1016.7
20260508115007 52 263 5.2 10.4 0.00 0.00 0.00 60 1016.7
20260508114507 52 236 3.5 13.9 0.00 0.00 0.00 61 1016.7
20260508114006 50 300 2.6 13.9 0.00 0.00 0.00 63 1016.7
20260508113506 49 304 3.5 11.3 0.00 0.00 0.00 63 1016.7
20260508113010 48 191 1.7 7.8 0.00 0.00 0.00 60 1016.7
20260508112503 49 267 2.6 7.8 0.00 0.00 0.00 62 1016.6
20260508112003 48 191 0.9 7.0 0.00 0.00 0.00 62 1016.5
20260508111503 48 254 0.9 7.8 0.00 0.00 0.00 59 1016.5
20260508111005 48 191 0.9 7.8 0.00 0.00 0.00 59 1016.5
20260508110501 48 47 0.9 6.1 0.00 0.00 0.00 58 1016.5
20260508110006 47 63 0.9 3.5 0.00 0.00 0.00 59 1016.4
20260508105501 47 360 0.9 3.5 0.00 0.00 0.00 58 1016.3
20260508105001 47 9 0.9 5.2 0.00 0.00 0.00 59 1016.3
20260508104501 47 11 0.9 5.2 0.00 0.00 0.00 59 1016.4
20260508104100 47 44 1.7 5.2 0.00 0.00 0.00 58 1016.4
20260508103602 48 3 1.7 6.1 0.00 0.00 0.00 58 1016.4
20260508103100 47 37 0.9 6.1 0.00 0.00 0.00 57 1016.3
20260508102600 47 6 0.9 4.3 0.00 0.00 0.00 58 1016.4
20260508102059 47 5 0.9 6.1 0.00 0.00 0.00 58 1016.4
20260508101600 47 11 1.7 6.1 0.00 0.00 0.00 57 1016.4
20260508101058 47 40 1.7 5.2 0.00 0.00 0.00 57 1016.3
20260508100600 47 91 0.9 5.2 0.00 0.00 0.00 58 1016.4
20260508100059 47 33 0.9 3.5 0.00 0.00 0.00 57 1016.4
20260508095557 47 2 0.9 6.1 0.00 0.00 0.00 59 1016.3
20260508095056 47 353 1.7 6.1 0.00 0.00 0.00 59 1016.3
20260508094615 47 2 1.7 6.1 0.00 0.00 0.00 58 1016.3
20260508094055 47 19 0.9 5.2 0.00 0.00 0.00 59 1016.4
20260508093554 47 6 0.9 4.3 0.00 0.00 0.00 59 1016.3
20260508093053 47 13 1.7 4.3 0.00 0.00 0.00 58 1016.3
20260508092553 47 33 0.9 3.5 0.00 0.00 0.00 57 1016.2
20260508092052 48 33 0.9 5.2 0.00 0.00 0.00 55 1016.2
20260508091551 48 358 0.0 5.2 0.00 0.00 0.00 56 1016.2
20260508091051 48 19 0.9 3.5 0.00 0.00 0.00 56 1016.1
20260508090549 48 5 0.9 3.5 0.00 0.00 0.00 57 1016.2
20260508090052 48 7 0.9 3.5 0.00 0.00 0.00 57 1016.1
20260508085546 49 7 0.9 3.5 0.00 0.00 0.00 57 1016.1
20260508085046 49 5 0.9 3.5 0.00 0.00 0.00 56 1016.1
20260508084545 49 67 0.0 4.3 0.00 0.00 0.00 54 1016.1
20260508084044 49 44 0.9 4.3 0.00 0.00 0.00 56 1016.1
20260508083546 50 258 0.0 2.6 0.00 0.00 0.00 54 1016.1
20260508083042 50 14 0.0 2.6 0.00 0.00 0.00 53 1016.1
20260508082540 51 349 0.0 3.5 0.00 0.00 0.00 53 1016.1
20260508082040 51 349 0.9 3.5 0.00 0.00 0.00 53 1016.0
20260508081559 51 325 0.0 1.7 0.00 0.00 0.00 54 1016.1
20260508081037 52 191 0.0 3.5 0.00 0.00 0.00 56 1016.0
20260508080536 52 191 0.0 7.0 0.00 0.00 0.00 56 1016.1
20260508080036 52 254 0.0 6.1 0.00 0.00 0.00 56 1016.0
20260508075535 53 266 0.0 7.8 0.00 0.00 0.00 54 1016.0
20260508075036 53 240 1.7 6.1 0.00 0.00 0.00 54 1016.0
20260508074534 53 260 0.0 7.0 0.00 0.00 0.00 50 1016.0
20260508074034 54 262 3.5 7.0 0.00 0.00 0.00 47 1016.0
20260508073532 54 274 0.9 7.8 0.00 0.00 0.00 47 1016.0
20260508073030 55 271 1.7 7.8 0.00 0.00 0.00 45 1016.0
20260508072529 55 273 1.7 7.0 0.00 0.00 0.00 44 1016.0
20260508072029 55 269 1.7 10.4 0.00 0.00 0.00 46 1016.0
20260508071539 55 191 0.0 10.4 0.00 0.00 0.00 45 1016.0
20260508071026 55 275 0.9 4.3 0.00 0.00 0.00 47 1016.0
20260508070528 55 191 0.0 3.5 0.00 0.00 0.00 47 1015.9
20260508070025 54 265 0.0 4.3 0.00 0.00 0.00 50 1016.0
20260508065525 55 267 0.0 4.3 0.00 0.00 0.00 47 1015.9
20260508065024 56 264 0.0 4.3 0.00 0.00 0.00 44 1015.9
20260508064524 56 191 0.0 3.5 0.00 0.00 0.00 43 1015.8
20260508064024 56 295 0.0 5.2 0.00 0.00 0.00 43 1015.9
20260508063524 56 268 0.0 5.2 0.00 0.00 0.00 43 1015.9
20260508063032 56 334 0.0 3.5 0.00 0.00 0.00 45 1015.9
20260508062524 55 191 0.0 3.5 0.00 0.00 0.00 46 1015.9
20260508062024 55 191 0.0 2.6 0.00 0.00 0.00 46 1015.9
20260508061523 55 191 0.0 4.3 0.00 0.00 0.00 46 1015.9
20260508061024 56 267 0.0 4.3 0.00 0.00 0.00 45 1015.8
20260508060522 56 219 0.0 4.3 0.00 0.00 0.00 43 1015.9
20260508060022 56 191 0.0 3.5 0.00 0.00 0.00 46 1016.0
20260508055523 56 262 0.0 5.2 0.00 0.00 0.00 44 1016.0
20260508055023 56 256 0.9 5.2 0.00 0.00 0.00 44 1015.9
20260508054523 57 269 0.0 6.1 0.00 0.00 0.00 43 1015.9
20260508054022 57 273 0.9 4.3 0.00 0.00 0.00 43 1015.8
20260508053522 57 191 0.0 4.3 0.00 0.00 0.00 44 1015.9
20260508053024 57 260 0.9 4.3 0.00 0.00 0.00 43 1015.9
20260508052526 57 213 0.0 3.5 0.00 0.00 0.00 44 1016.0
20260508052022 57 357 0.0 4.3 0.00 0.00 0.00 43 1016.0
20260508051522 57 3 0.0 4.3 0.00 0.00 0.00 42 1015.9
20260508051022 57 3 0.9 4.3 0.00 0.00 0.00 45 1016.0
20260508050522 56 352 1.7 4.3 0.00 0.00 0.00 45 1016.0
20260508050021 56 343 0.9 2.6 0.00 0.00 0.00 45 1015.9
20260508045522 57 318 0.0 2.6 0.00 0.00 0.00 45 1015.8
20260508045021 57 333 0.0 2.6 0.00 0.00 0.00 43 1015.8
20260508044527 57 330 0.0 2.6 0.00 0.00 0.00 43 1015.8
20260508044021 57 309 0.0 3.5 0.00 0.00 0.00 43 1015.8
20260508043521 57 309 0.0 3.5 0.00 0.00 0.00 44 1015.7
20260508043022 57 320 0.0 2.6 0.00 0.00 0.00 42 1015.6
20260508042522 57 319 0.9 2.6 0.00 0.00 0.00 41 1015.7
20260508042020 58 191 0.0 7.8 0.00 0.00 0.00 40 1015.6
20260508041519 58 257 1.7 7.8 0.00 0.00 0.00 39 1015.6
20260508041020 59 260 1.7 4.3 0.00 0.00 0.00 40 1015.5
20260508040519 59 191 0.0 6.1 0.00 0.00 0.00 38 1015.5
20260508040019 59 270 0.9 6.1 0.00 0.00 0.00 39 1015.5
20260508035521 59 269 0.0 1.7 0.00 0.00 0.00 36 1015.4
20260508035019 59 269 0.0 4.3 0.00 0.00 0.00 35 1015.3
20260508034519 60 269 0.0 5.2 0.00 0.00 0.00 36 1015.3
20260508034019 61 191 1.7 5.2 0.00 0.00 0.00 33 1015.2
20260508033519 60 264 1.7 6.1 0.00 0.00 0.00 33 1015.2
20260508033022 60 265 1.7 5.2 0.00 0.00 0.00 34 1015.2
20260508032519 60 191 0.0 5.2 0.00 0.00 0.00 34 1015.1
20260508032019 60 275 0.0 5.2 0.00 0.00 0.00 32 1015.1
20260508031518 60 191 0.0 1.7 0.00 0.00 0.00 32 1015.0
20260508031018 61 191 0.0 2.6 0.00 0.00 0.00 31 1014.9
20260508030518 61 191 0.0 2.6 0.00 0.00 0.00 28 1015.0
20260508030018 62 191 0.0 1.7 0.00 0.00 0.00 31 1015.0
20260508025520 62 191 0.0 3.5 0.00 0.00 0.00 29 1015.0
20260508025017 62 191 0.0 8.7 0.00 0.00 0.00 29 1015.0
20260508024531 63 247 3.5 8.7 0.00 0.00 0.00 28 1015.0
20260508024018 63 300 2.6 8.7 0.00 0.00 0.00 29 1015.0
20260508023518 63 262 0.9 8.7 0.00 0.00 0.00 28 1015.0
20260508023024 64 242 2.6 9.6 0.00 0.00 0.00 26 1014.9
20260508022517 64 250 1.7 12.2 0.00 0.00 0.00 26 1014.9
20260508022017 64 254 4.3 12.2 0.00 0.00 0.00 26 1014.9
20260508021517 65 298 0.9 9.6 0.00 0.00 0.00 26 1014.8
20260508021016 65 271 0.9 5.2 0.00 0.00 0.00 26 1014.8
20260508020516 65 267 0.0 9.6 0.00 0.00 0.00 26 1014.8
20260508020016 65 253 3.5 9.6 0.00 0.00 0.00 24 1014.8
20260508015516 65 243 1.7 7.0 0.00 0.00 0.00 24 1014.8
20260508015016 65 254 1.7 8.7 0.00 0.00 0.00 21 1014.9
20260508014516 66 267 1.7 8.7 0.00 0.00 0.00 21 1014.9
20260508014016 66 251 1.7 7.8 0.00 0.00 0.00 22 1014.9
20260508013519 66 191 3.5 7.8 0.00 0.00 0.00 23 1014.9
20260508013015 67 264 1.7 9.6 0.00 0.00 0.00 20 1014.9
20260508012515 67 250 3.5 7.0 0.00 0.00 0.00 20 1014.9
20260508012016 67 229 1.7 7.8 0.00 0.00 0.00 20 1014.9
20260508011515 67 249 3.5 7.0 0.00 0.00 0.00 22 1015.0
20260508011014 67 265 1.7 7.8 0.00 0.00 0.00 21 1015.0
20260508010514 67 191 3.5 7.8 0.00 0.00 0.00 20 1015.0
20260508010020 68 191 3.5 7.0 0.00 0.00 0.00 22 1015.0
20260508005515 68 266 1.7 9.6 0.00 0.00 0.00 20 1015.0
20260508005017 68 317 2.6 9.6 0.00 0.00 0.00 23 1015.0
20260508004514 68 272 2.6 9.6 0.00 0.00 0.00 19 1015.0
20260508004017 68 271 3.5 11.3 0.00 0.00 0.00 20 1014.9
20260508003513 68 242 4.3 13.0 0.00 0.00 0.00 20 1014.8
20260508003014 68 191 4.3 13.0 0.00 0.00 0.00 18 1015.0
20260508002515 69 266 2.6 7.8 0.00 0.00 0.00 17 1014.9
20260508002013 70 256 1.7 11.3 0.00 0.00 0.00 19 1014.9
20260508001513 70 273 5.2 11.3 0.00 0.00 0.00 19 1014.9
20260508001013 69 191 4.3 7.8 0.00 0.00 0.00 20 1015.0
20260508000511 70 269 1.7 8.7 0.00 0.00 0.00 23 1014.9
20260508000012 71 248 1.7 7.8 0.00 0.00 0.00 21 1014.9
20260507235511 72 248 4.3 7.8 0.00 0.00 0.00 16 1014.8
20260507235011 72 247 2.6 9.6 0.00 0.00 0.00 19 1014.8
20260507234517 72 257 4.3 10.4 0.00 0.00 0.00 19 1014.8
20260507234010 73 244 2.6 10.4 0.00 0.00 0.00 13 1014.9
20260507233510 72 261 2.6 11.3 0.00 0.00 0.00 17 1014.9
20260507233028 71 252 1.7 11.3 0.00 0.00 0.00 19 1014.9
20260507232511 72 244 4.3 13.0 0.00 0.00 0.00 20 1014.8
20260507232010 72 265 7.0 13.0 0.00 0.00 0.00 20 1014.9
20260507231509 72 247 7.0 14.8 0.00 0.00 0.00 16 1014.9
20260507231008 72 230 7.8 14.8 0.00 0.00 0.00 12 1015.1
20260507230508 72 260 6.1 13.0 0.00 0.00 0.00 18 1015.0
20260507230006 72 255 8.7 13.0 0.00 0.00 0.00 14 1015.1
20260507225506 71 255 4.3 13.0 0.00 0.00 0.00 17 1015.1
20260507225006 72 240 5.2 13.9 0.00 0.00 0.00 17 1015.1
20260507224506 71 250 7.0 16.5 0.00 0.00 0.00 20 1015.2
20260507224009 71 246 9.6 18.2 0.00 0.00 0.00 17 1015.2
20260507223505 72 191 10.4 18.2 0.00 0.00 0.00 15 1015.2
20260507223004 71 243 10.4 18.2 0.00 0.00 0.00 18 1015.2
20260507222506 72 271 10.4 16.5 0.00 0.00 0.00 20 1015.3
20260507222003 72 229 9.6 16.5 0.00 0.00 0.00 19 1015.4
20260507221505 71 264 10.4 18.2 0.00 0.00 0.00 19 1015.4
20260507221003 72 244 8.7 18.2 0.00 0.00 0.00 21 1015.5
20260507220501 72 262 9.6 18.2 0.00 0.00 0.00 24 1015.5
20260507220002 72 227 11.3 16.5 0.00 0.00 0.00 22 1015.5
20260507215601 71 247 8.7 20.0 0.00 0.00 0.00 34 1015.6
20260507215059 72 250 9.6 20.0 0.00 0.00 0.00 31 1015.7
20260507214607 72 248 9.6 15.6 0.00 0.00 0.00 24 1015.7
20260507214102 72 260 8.7 16.5 0.00 0.00 0.00 29 1015.8
20260507213559 72 240 8.7 16.5 0.00 0.00 0.00 30 1015.8
20260507213101 71 254 7.8 16.5 0.00 0.00 0.00 28 1015.9
20260507212558 72 191 7.8 15.6 0.00 0.00 0.00 30 1015.9
20260507212102 72 238 8.7 15.6 0.00 0.00 0.00 27 1015.8
20260507211601 71 233 6.1 15.6 0.00 0.00 0.00 32 1015.9
20260507211056 71 292 5.2 13.9 0.00 0.00 0.00 30 1016.0
20260507210556 69 242 5.2 14.8 0.00 0.00 0.00 29 1016.1
20260507205553 70 249 5.2 13.9 0.00 0.00 0.00 31 1016.2
20260507205052 70 191 4.3 18.2 0.00 0.00 0.00 33 1016.3
20260507204552 70 265 5.2 12.2 0.00 0.00 0.00 35 1016.3
20260507204055 70 243 4.3 10.4 0.00 0.00 0.00 36 1016.3
20260507203551 69 258 2.6 13.9 0.00 0.00 0.00 35 1016.4
20260507203103 69 273 6.1 14.8 0.00 0.00 0.00 35 1016.4
20260507202548 69 191 7.0 14.8 0.00 0.00 0.00 40 1016.5
20260507202048 68 257 6.1 15.6 0.00 0.00 0.00 38 1016.6
20260507201556 67 191 7.8 16.5 0.00 0.00 0.00 38 1016.7
20260507201047 67 274 8.7 15.6 0.00 0.00 0.00 40 1016.8
20260507200546 67 263 7.8 18.2 0.00 0.00 0.00 42 1016.8
20260507195545 68 250 9.6 14.8 0.00 0.00 0.00 43 1017.0
20260507195045 68 246 10.4 20.0 0.00 0.00 0.00 42 1017.0
20260507194544 68 237 8.7 16.5 0.00 0.00 0.00 44 1017.1
20260507194042 68 242 9.6 18.2 0.00 0.00 0.00 45 1017.0
20260507193542 67 237 9.6 18.2 0.00 0.00 0.00 44 1017.0
20260507193046 67 257 7.8 13.9 0.00 0.00 0.00 41 1017.1
20260507192540 67 240 9.6 17.4 0.00 0.00 0.00 43 1017.1
20260507192040 67 250 11.3 20.0 0.00 0.00 0.00 36 1017.2
20260507191538 66 246 12.2 20.0 0.00 0.00 0.00 39 1017.3
20260507191037 66 245 11.3 20.9 0.00 0.00 0.00 36 1017.3
20260507190540 66 254 14.8 22.6 0.00 0.00 0.00 37 1017.2
20260507190037 66 262 13.0 22.6 0.00 0.00 0.00 38 1017.2
20260507185539 66 262 12.2 20.0 0.00 0.00 0.00 37 1017.2
20260507185034 65 249 13.0 20.0 0.00 0.00 0.00 38 1017.3
20260507184534 65 236 10.4 20.0 0.00 0.00 0.00 38 1017.3
20260507184035 65 271 11.3 20.0 0.00 0.00 0.00 41 1017.4
20260507183531 64 233 12.2 19.1 0.00 0.00 0.00 40 1017.3
20260507183029 64 260 7.8 19.1 0.00 0.00 0.00 54 1017.5
20260507182528 63 254 13.0 21.7 0.00 0.00 0.00 44 1017.6
20260507182027 63 261 13.9 20.9 0.00 0.00 0.00 42 1017.6
20260507181530 63 277 13.9 20.9 0.00 0.00 0.00 44 1017.7
20260507181025 63 250 12.2 21.7 0.00 0.00 0.00 44 1017.5
20260507180525 63 191 10.4 19.1 0.00 0.00 0.00 43 1017.7
20260507180027 63 230 11.3 19.1 0.00 0.00 0.00 46 1017.6
20260507175523 63 226 12.2 16.5 0.00 0.00 0.00 49 1017.7
20260507175020 63 265 9.6 15.6 0.00 0.00 0.00 50 1017.8
20260507174520 62 269 9.6 16.5 0.00 0.00 0.00 51 1017.8
20260507174017 62 247 8.7 19.1 0.00 0.00 0.00 53 1017.8
20260507173516 61 230 13.0 22.6 0.00 0.00 0.00 49 1017.8
20260507173029 61 235 10.4 20.0 0.00 0.00 0.00 50 1017.9
20260507172515 60 239 12.2 20.0 0.00 0.00 0.00 52 1018.0
20260507172014 61 265 10.4 19.1 0.00 0.00 0.00 51 1018.0
20260507171512 60 237 7.8 21.7 0.00 0.00 0.00 50 1018.2
20260507171012 60 253 9.6 21.7 0.00 0.00 0.00 50 1018.1
20260507170511 60 271 8.7 19.1 0.00 0.00 0.00 53 1018.2
20260507170010 59 233 7.8 18.2 0.00 0.00 0.00 53 1018.3
20260507165510 59 249 8.7 20.0 0.00 0.00 0.00 56 1018.3
20260507165010 59 250 9.6 20.9 0.00 0.00 0.00 52 1018.3
20260507164507 59 252 9.6 16.5 0.00 0.00 0.00 54 1018.3
20260507164005 58 191 8.7 21.7 0.00 0.00 0.00 56 1018.3
20260507163503 58 260 10.4 21.7 0.00 0.00 0.00 56 1018.3
20260507163002 58 277 9.6 20.9 0.00 0.00 0.00 56 1018.4
20260507162502 58 255 7.8 16.5 0.00 0.00 0.00 58 1018.5
20260507162001 57 259 7.8 18.2 0.00 0.00 0.00 59 1018.5
20260507161604 57 255 10.4 18.2 0.00 0.00 0.00 56 1018.6
20260507161100 57 250 8.7 14.8 0.00 0.00 0.00 59 1018.6
20260507160600 57 244 8.7 20.0 0.00 0.00 0.00 59 1018.7
20260507160059 57 191 6.1 20.0 0.00 0.00 0.00 59 1018.8
20260507155558 56 221 7.0 19.1 0.00 0.00 0.00 59 1018.8
20260507155106 56 272 9.6 15.6 0.00 0.00 0.00 60 1018.7
20260507154559 56 273 7.0 15.6 0.00 0.00 0.00 64 1018.8
20260507154059 55 267 9.6 15.6 0.00 0.00 0.00 65 1018.9
20260507153554 55 244 8.7 16.5 0.00 0.00 0.00 64 1018.9
20260507153053 55 273 7.8 16.5 0.00 0.00 0.00 67 1019.1
20260507152553 54 258 8.7 20.0 0.00 0.00 0.00 66 1019.0
20260507152050 54 254 7.8 20.0 0.00 0.00 0.00 67 1019.0
20260507151549 54 244 11.3 20.0 0.00 0.00 0.00 66 1019.1
20260507151047 54 258 10.4 20.0 0.00 0.00 0.00 67 1019.1
20260507150547 54 247 8.7 13.9 0.00 0.00 0.00 68 1019.1
20260507150045 53 267 7.8 13.9 0.00 0.00 0.00 69 1019.2
20260507145544 53 246 5.2 13.9 0.00 0.00 0.00 69 1019.3
20260507145042 53 259 7.8 13.0 0.00 0.00 0.00 68 1019.2
20260507144543 53 243 7.8 13.9 0.00 0.00 0.00 69 1019.2
20260507144040 53 233 8.7 13.0 0.00 0.00 0.00 69 1019.2
20260507143539 52 244 7.8 14.8 0.00 0.00 0.00 69 1019.2
20260507143038 52 224 9.6 14.8 0.00 0.00 0.00 70 1019.1
20260507142538 52 243 7.8 13.9 0.00 0.00 0.00 70 1019.1
20260507142035 52 239 9.6 13.9 0.00 0.00 0.00 71 1019.1
20260507141533 52 235 7.0 13.9 0.00 0.00 0.00 72 1019.0